,,Stat6,,Stat2,,Stat8,,Stat9,,Stat10,,Wind1,,Wind1,
time,status,PA1M_AVG,status,PR1M_SUM,status,RH1M_AVG,status,SR1M_AVG,status,TA1M_AVG,status,W1dAve1m,status,W1sAve1m,
2008-06-05, 00:00:01,VALID,917.524,VALID,0,VALID,100,VALID,0,VALID,20.2287,VALID,192,VALID,0,
2008-06-05, 00:01:01,VALID,917.509,VALID,0,VALID,100,VALID,0.0169808,VALID,20.2379,VALID,192,VALID,0,
2008-06-05, 00:02:00,VALID,917.488,VALID,0,VALID,100,VALID,0,VALID,20.2604,VALID,221,VALID,0,
2008-06-05, 00:03:00,VALID,917.469,VALID,0,VALID,100,VALID,0.0169808,VALID,20.2704,VALID,233,VALID,0,
2008-06-05, 00:04:00,VALID,917.445,VALID,0,VALID,100,VALID,0.0169808,VALID,20.2736,VALID,235,VALID,0,
2008-06-05, 00:05:00,VALID,917.442,VALID,0,VALID,100,VALID,0,VALID,20.2896,VALID,238,VALID,0,
2008-06-05, 00:06:00,VALID,917.427,VALID,0,VALID,100,VALID,-0.0169808,VALID,20.2834,VALID,251,VALID,0,
2008-06-05, 00:07:01,VALID,917.424,VALID,0,VALID,100,VALID,0.0339617,VALID,20.2796,VALID,251,VALID,0,
2008-06-05, 00:08:00,VALID,917.419,VALID,0,VALID,100,VALID,-0.0509425,VALID,20.2966,VALID,251,VALID,0,
2008-06-05, 00:09:01,VALID,917.413,VALID,0,VALID,100,VALID,-0.0679233,VALID,20.2974,VALID,251,VALID,0,
2008-06-05, 00:10:00,VALID,917.395,VALID,0,VALID,100,VALID,-0.0849042,VALID,20.3366,VALID,251,VALID,0,
2008-06-05, 00:11:01,VALID,917.407,VALID,0,VALID,100,VALID,-0.101885,VALID,20.3661,VALID,251,VALID,0,
2008-06-05, 00:12:01,VALID,917.394,VALID,0,VALID,100,VALID,-0.0849042,VALID,20.3725,VALID,251,VALID,0,
2008-06-05, 00:13:00,VALID,917.38,VALID,0,VALID,100,VALID,-0.0849042,VALID,20.3923,VALID,251,VALID,0,
2008-06-05, 00:14:00,VALID,917.37,VALID,0,VALID,100,VALID,-0.101885,VALID,20.4018,VALID,251,VALID,0,
2008-06-05, 00:15:01,VALID,917.368,VALID,0,VALID,100,VALID,-0.0849042,VALID,20.4212,VALID,251,VALID,0,
2008-06-05, 00:16:01,VALID,917.371,VALID,0,VALID,100,VALID,-0.0849042,VALID,20.4245,VALID,251,VALID,0,
2008-06-05, 00:17:00,VALID,917.36,VALID,0,VALID,100,VALID,-0.135847,VALID,20.4245,VALID,236,VALID,0,
2008-06-05, 00:18:01,VALID,917.351,VALID,0,VALID,100,VALID,-0.101885,VALID,20.421,VALID,235,VALID,0,
2008-06-05, 00:19:01,VALID,917.34,VALID,0,VALID,100,VALID,-0.0849042,VALID,20.4212,VALID,235,VALID,0,
2008-06-05, 00:20:01,VALID,917.349,VALID,0,VALID,100,VALID,-0.101885,VALID,20.4175,VALID,235,VALID,0,
2008-06-05, 00:21:01,VALID,917.317,VALID,0,VALID,100,VALID,-0.118866,VALID,20.4242,VALID,235,VALID,0,
2008-06-05, 00:22:01,VALID,917.293,VALID,0,VALID,100,VALID,-0.101885,VALID,20.4277,VALID,235,VALID,0,
2008-06-05, 00:23:01,VALID,917.29,VALID,0,VALID,100,VALID,-0.0509425,VALID,20.4237,VALID,235,VALID,0,
2008-06-05, 00:24:01,VALID,917.265,VALID,0,VALID,100,VALID,0,VALID,20.4327,VALID,235,VALID,0,
2008-06-05, 00:25:01,VALID,917.251,VALID,0,VALID,100,VALID,-0.0169808,VALID,20.4359,VALID,235,VALID,0,
2008-06-05, 00:26:00,VALID,917.24,VALID,0,VALID,100,VALID,-0.0169808,VALID,20.4391,VALID,234,VALID,0,
2008-06-05, 00:27:00,VALID,917.23,VALID,0,VALID,100,VALID,0,VALID,20.4586,VALID,234,VALID,0,
2008-06-05, 00:28:00,VALID,917.232,VALID,0,VALID,100,VALID,0,VALID,20.4554,VALID,234,VALID,0,
2008-06-05, 00:29:00,VALID,917.221,VALID,0,VALID,100,VALID,0.0169808,VALID,20.4684,VALID,234,VALID,0,
2008-06-05, 00:30:00,VALID,917.224,VALID,0,VALID,100,VALID,-0.0169808,VALID,20.4586,VALID,234,VALID,0,
2008-06-05, 00:31:00,VALID,917.209,VALID,0,VALID,100,VALID,0,VALID,20.4619,VALID,235,VALID,0,
2008-06-05, 00:32:00,VALID,917.224,VALID,0,VALID,100,VALID,-0.0169808,VALID,20.4586,VALID,235,VALID,0,
2008-06-05, 00:33:00,VALID,917.219,VALID,0,VALID,100,VALID,-0.0339617,VALID,20.4746,VALID,274,VALID,0,
2008-06-05, 00:34:00,VALID,917.199,VALID,0,VALID,100,VALID,-0.0509425,VALID,20.4746,VALID,317,VALID,0,
2008-06-05, 00:35:00,VALID,917.2,VALID,0,VALID,100,VALID,0,VALID,20.4713,VALID,317,VALID,0,
2008-06-05, 00:36:00,VALID,917.2,VALID,0,VALID,100,VALID,-0.0339617,VALID,20.4556,VALID,317,VALID,0,
2008-06-05, 00:37:00,VALID,917.191,VALID,0,VALID,100,VALID,-0.0509425,VALID,20.4491,VALID,317,VALID,0,
2008-06-05, 00:38:00,VALID,917.18,VALID,0,VALID,100,VALID,-0.0339617,VALID,20.4332,VALID,318,VALID,0,
2008-06-05, 00:39:00,VALID,917.169,VALID,0,VALID,100,VALID,-0.0169808,VALID,20.4162,VALID,43,VALID,0,
2008-06-05, 00:40:00,VALID,917.18,VALID,0,VALID,100,VALID,0,VALID,20.3745,VALID,49,VALID,0,
2008-06-05, 00:41:00,VALID,917.176,VALID,0,VALID,100,VALID,-0.0339617,VALID,20.3545,VALID,50,VALID,0,
2008-06-05, 00:42:00,VALID,917.189,VALID,0,VALID,100,VALID,-0.0169808,VALID,20.3418,VALID,60,VALID,0,
2008-06-05, 00:43:00,VALID,917.199,VALID,0,VALID,100,VALID,-0.0169808,VALID,20.3448,VALID,69,VALID,0,
2008-06-05, 00:44:00,VALID,917.218,VALID,0,VALID,100,VALID,0,VALID,20.3483,VALID,69,VALID,0,
2008-06-05, 00:45:00,VALID,917.238,VALID,0,VALID,100,VALID,0,VALID,20.3518,VALID,69,VALID,0,
2008-06-05, 00:46:00,VALID,917.272,VALID,0,VALID,100,VALID,-0.0169808,VALID,20.345,VALID,69,VALID,0,
2008-06-05, 00:47:00,VALID,917.29,VALID,0,VALID,100,VALID,-0.0169808,VALID,20.3353,VALID,79,VALID,0.654688,
2008-06-05, 00:48:00,VALID,917.303,VALID,0,VALID,100,VALID,0,VALID,20.3256,VALID,90,VALID,0.0336806,
2008-06-05, 00:49:00,VALID,917.318,VALID,0,VALID,100,VALID,0,VALID,20.3158,VALID,87,VALID,0.00130208,
2008-06-05, 00:50:00,VALID,917.321,VALID,0,VALID,100,VALID,0,VALID,20.3093,VALID,90,VALID,0,
2008-06-05, 00:51:00,VALID,917.319,VALID,0,VALID,100,VALID,-0.0509425,VALID,20.2929,VALID,88,VALID,0,
2008-06-05, 00:52:00,VALID,917.335,VALID,0,VALID,100,VALID,0,VALID,20.2931,VALID,73,VALID,0,
2008-06-05, 00:53:00,VALID,917.343,VALID,0,VALID,100,VALID,-0.0169808,VALID,20.2996,VALID,72,VALID,0,
2008-06-05, 00:54:00,VALID,917.344,VALID,0,VALID,100,VALID,0,VALID,20.2993,VALID,79,VALID,0,
2008-06-05, 00:55:00,VALID,917.341,VALID,0,VALID,100,VALID,-0.0169808,VALID,20.2991,VALID,88,VALID,0.0417259,
2008-06-05, 00:56:00,VALID,917.339,VALID,0,VALID,100,VALID,0,VALID,20.2961,VALID,79,VALID,0.133203,
2008-06-05, 00:57:00,VALID,917.327,VALID,0,VALID,100,VALID,-0.0169808,VALID,20.3061,VALID,82,VALID,1.05431,
2008-06-05, 00:58:00,VALID,917.299,VALID,0,VALID,100,VALID,0,VALID,20.3028,VALID,82,VALID,1.03409,
2008-06-05, 00:59:00,VALID,917.272,VALID,0,VALID,100,VALID,0,VALID,20.3093,VALID,74,VALID,0.728016,
2008-06-05, 01:00:00,VALID,917.248,VALID,0,VALID,100,VALID,-0.0169808,VALID,20.2988,VALID,88,VALID,0.939024,
2008-06-05, 01:01:00,VALID,917.224,VALID,0,VALID,100,VALID,0.0169808,VALID,20.3056,VALID,89,VALID,0.724927,
2008-06-05, 01:02:00,VALID,917.209,VALID,0,VALID,100,VALID,0,VALID,20.3088,VALID,73,VALID,0.327592,
2008-06-05, 01:03:00,VALID,917.193,VALID,0,VALID,100,VALID,0,VALID,20.3156,VALID,84,VALID,0,
2008-06-05, 01:04:00,VALID,917.178,VALID,0,VALID,100,VALID,0,VALID,20.3223,VALID,80,VALID,0,
2008-06-05, 01:05:00,VALID,917.155,VALID,0,VALID,100,VALID,0.0339617,VALID,20.328,VALID,71,VALID,0,
2008-06-05, 01:06:00,VALID,917.143,VALID,0,VALID,100,VALID,0,VALID,20.3283,VALID,46,VALID,0,
2008-06-05, 01:07:00,VALID,917.127,VALID,0,VALID,100,VALID,0,VALID,20.3318,VALID,50,VALID,0,
2008-06-05, 01:08:00,VALID,917.138,VALID,0,VALID,100,VALID,0,VALID,20.3348,VALID,39,VALID,0,
2008-06-05, 01:09:00,VALID,917.115,VALID,0,VALID,100,VALID,0.0169808,VALID,20.3288,VALID,39,VALID,0,
2008-06-05, 01:10:00,VALID,917.098,VALID,0,VALID,100,VALID,-0.0169808,VALID,20.3415,VALID,29,VALID,0,
2008-06-05, 01:11:00,VALID,917.079,VALID,0,VALID,100,VALID,0,VALID,20.3385,VALID,27,VALID,0,
2008-06-05, 01:12:00,VALID,917.048,VALID,0,VALID,100,VALID,0.0169808,VALID,20.3348,VALID,35,VALID,0,
2008-06-05, 01:13:00,VALID,917.019,VALID,0,VALID,100,VALID,0,VALID,20.3483,VALID,36,VALID,0,
2008-06-05, 01:14:00,VALID,916.981,VALID,0,VALID,100,VALID,0,VALID,20.3675,VALID,23,VALID,0,
2008-06-05, 01:15:00,VALID,916.938,VALID,0,VALID,100,VALID,-0.0169808,VALID,20.3643,VALID,23,VALID,0,
2008-06-05, 01:16:00,VALID,916.859,VALID,0,VALID,100,VALID,-0.0169808,VALID,20.3548,VALID,23,VALID,0,
2008-06-05, 01:17:00,VALID,916.805,VALID,0,VALID,100,VALID,0,VALID,20.348,VALID,12,VALID,0,
2008-06-05, 01:18:00,VALID,916.767,VALID,0,VALID,100,VALID,0,VALID,20.335,VALID,333,VALID,0,
2008-06-05, 01:19:00,VALID,916.721,VALID,0,VALID,100,VALID,0,VALID,20.3278,VALID,315,VALID,0,
2008-06-05, 01:20:00,VALID,916.69,VALID,0,VALID,100,VALID,0.0169808,VALID,20.3383,VALID,311,VALID,0,
2008-06-05, 01:21:00,VALID,916.669,VALID,0,VALID,100,VALID,0.0169808,VALID,20.3245,VALID,310,VALID,0,
2008-06-05, 01:22:00,VALID,916.645,VALID,0,VALID,100,VALID,-0.0169808,VALID,20.338,VALID,310,VALID,0,
2008-06-05, 01:23:00,VALID,916.626,VALID,0,VALID,100,VALID,-0.0169808,VALID,20.3356,VALID,310,VALID,0,
2008-06-05, 01:24:00,VALID,916.616,VALID,0,VALID,100,VALID,-0.0509425,VALID,20.3488,VALID,310,VALID,0,
2008-06-05, 01:25:00,VALID,916.591,VALID,0,VALID,100,VALID,-0.0509425,VALID,20.358,VALID,312,VALID,0,
2008-06-05, 01:26:00,VALID,916.56,VALID,0,VALID,100,VALID,-0.0679233,VALID,20.3585,VALID,340,VALID,0,
2008-06-05, 01:27:00,VALID,916.546,VALID,0,VALID,100,VALID,-0.0509425,VALID,20.365,VALID,351,VALID,0,
2008-06-05, 01:28:00,VALID,916.519,VALID,0,VALID,100,VALID,-0.0509425,VALID,20.355,VALID,351,VALID,0,
2008-06-05, 01:29:00,VALID,916.503,VALID,0,VALID,100,VALID,-0.0679233,VALID,20.342,VALID,330,VALID,0,
2008-06-05, 01:30:00,VALID,916.483,VALID,0,VALID,100,VALID,-0.101885,VALID,20.3426,VALID,286,VALID,0,
2008-06-05, 01:31:00,VALID,916.473,VALID,0,VALID,100,VALID,-0.0679233,VALID,20.3453,VALID,284,VALID,0,
2008-06-05, 01:32:00,VALID,916.485,VALID,0,VALID,100,VALID,-0.0849042,VALID,20.3258,VALID,285,VALID,0,
2008-06-05, 01:33:00,VALID,916.5,VALID,0,VALID,100,VALID,-0.0679233,VALID,20.3198,VALID,285,VALID,0,
2008-06-05, 01:34:00,VALID,916.497,VALID,0,VALID,100,VALID,-0.0849042,VALID,20.3106,VALID,285,VALID,0,
2008-06-05, 01:35:00,VALID,916.518,VALID,0,VALID,100,VALID,-0.0679233,VALID,20.2944,VALID,285,VALID,0,
2008-06-05, 01:36:00,VALID,916.534,VALID,0,VALID,100,VALID,-0.0849042,VALID,20.2709,VALID,269,VALID,0,
2008-06-05, 01:37:00,VALID,916.528,VALID,0,VALID,100,VALID,-0.0849042,VALID,20.2717,VALID,231,VALID,0,
2008-06-05, 01:38:00,VALID,916.541,VALID,0,VALID,100,VALID,-0.0509425,VALID,20.2577,VALID,231,VALID,0,
2008-06-05, 01:39:00,VALID,916.52,VALID,0,VALID,100,VALID,0.0169808,VALID,20.2569,VALID,231,VALID,0,
2008-06-05, 01:40:00,VALID,916.517,VALID,0,VALID,100,VALID,0,VALID,20.2537,VALID,231,VALID,0,
2008-06-05, 01:41:00,VALID,916.49,VALID,0,VALID,100,VALID,0,VALID,20.2467,VALID,231,VALID,0,
2008-06-05, 01:42:00,VALID,916.467,VALID,0,VALID,100,VALID,0.0169808,VALID,20.2372,VALID,231,VALID,0,
2008-06-05, 01:43:00,VALID,916.438,VALID,0,VALID,100,VALID,0.0339617,VALID,20.2402,VALID,231,VALID,0,
2008-06-05, 01:44:00,VALID,916.419,VALID,0,VALID,100,VALID,0.0339617,VALID,20.2464,VALID,231,VALID,0,
2008-06-05, 01:45:00,VALID,916.392,VALID,0,VALID,100,VALID,0,VALID,20.2434,VALID,231,VALID,0,
2008-06-05, 01:46:00,VALID,916.369,VALID,0,VALID,100,VALID,0.0169808,VALID,20.2304,VALID,231,VALID,0,
2008-06-05, 01:47:00,VALID,916.351,VALID,0,VALID,100,VALID,0,VALID,20.2245,VALID,231,VALID,0,
2008-06-05, 01:48:00,VALID,916.341,VALID,0,VALID,100,VALID,0,VALID,20.205,VALID,231,VALID,0,
2008-06-05, 01:49:00,VALID,916.345,VALID,0,VALID,100,VALID,0.0169808,VALID,20.1825,VALID,231,VALID,0,
2008-06-05, 01:50:00,VALID,916.293,VALID,0,VALID,100,VALID,0,VALID,20.1858,VALID,231,VALID,0,
2008-06-05, 01:51:00,VALID,916.278,VALID,0,VALID,100,VALID,0.0679233,VALID,20.175,VALID,231,VALID,0,
2008-06-05, 01:52:00,VALID,916.265,VALID,0,VALID,100,VALID,0,VALID,20.2012,VALID,231,VALID,0,
2008-06-05, 01:53:00,VALID,916.262,VALID,0,VALID,100,VALID,-0.0169808,VALID,20.2052,VALID,231,VALID,0,
2008-06-05, 01:54:00,VALID,916.27,VALID,0,VALID,100,VALID,-0.101885,VALID,20.2095,VALID,231,VALID,0,
2008-06-05, 01:55:00,VALID,916.274,VALID,0,VALID,100,VALID,-0.0679233,VALID,20.2028,VALID,231,VALID,0,
2008-06-05, 01:56:00,VALID,916.289,VALID,0,VALID,100,VALID,-0.0849042,VALID,20.1993,VALID,231,VALID,0,
2008-06-05, 01:57:00,VALID,916.281,VALID,0,VALID,100,VALID,-0.0509425,VALID,20.1995,VALID,231,VALID,0,
2008-06-05, 01:58:00,VALID,916.267,VALID,0,VALID,100,VALID,-0.0679233,VALID,20.2033,VALID,231,VALID,0,
2008-06-05, 01:59:00,VALID,916.248,VALID,0,VALID,100,VALID,-0.0849042,VALID,20.2028,VALID,231,VALID,0,
2008-06-05, 02:00:00,VALID,916.243,VALID,0,VALID,100,VALID,-0.0849042,VALID,20.2095,VALID,231,VALID,0,
2008-06-05, 02:01:00,VALID,916.212,VALID,0,VALID,100,VALID,-0.0679233,VALID,20.2093,VALID,231,VALID,0,
2008-06-05, 02:02:00,VALID,916.195,VALID,0,VALID,100,VALID,-0.0849042,VALID,20.2125,VALID,231,VALID,0,
2008-06-05, 02:03:00,VALID,916.2,VALID,0,VALID,100,VALID,-0.101885,VALID,20.1995,VALID,231,VALID,0,
2008-06-05, 02:04:00,VALID,916.197,VALID,0,VALID,100,VALID,-0.118866,VALID,20.199,VALID,231,VALID,0,
2008-06-05, 02:05:00,VALID,916.199,VALID,0,VALID,100,VALID,-0.0849042,VALID,20.2122,VALID,231,VALID,0,
2008-06-05, 02:06:00,VALID,916.221,VALID,0,VALID,100,VALID,-0.101885,VALID,20.2122,VALID,231,VALID,0,
2008-06-05, 02:07:00,VALID,916.221,VALID,0,VALID,100,VALID,-0.0849042,VALID,20.222,VALID,231,VALID,0,
2008-06-05, 02:08:00,VALID,916.223,VALID,0,VALID,100,VALID,-0.0509425,VALID,20.2379,VALID,231,VALID,0,
2008-06-05, 02:09:00,VALID,916.221,VALID,0,VALID,100,VALID,-0.0849042,VALID,20.2255,VALID,231,VALID,0,
2008-06-05, 02:10:00,VALID,916.207,VALID,0,VALID,100,VALID,-0.0509425,VALID,20.219,VALID,231,VALID,0,
2008-06-05, 02:11:00,VALID,916.204,VALID,0,VALID,100,VALID,-0.101885,VALID,20.2122,VALID,231,VALID,0,
2008-06-05, 02:12:00,VALID,916.197,VALID,0,VALID,100,VALID,-0.0849042,VALID,20.2255,VALID,231,VALID,0,
2008-06-05, 02:13:00,VALID,916.186,VALID,0,VALID,100,VALID,-0.0169808,VALID,20.2255,VALID,231,VALID,0,
2008-06-05, 02:14:00,VALID,916.177,VALID,0,VALID,100,VALID,-0.0679233,VALID,20.2317,VALID,231,VALID,0,
2008-06-05, 02:15:00,VALID,916.16,VALID,0,VALID,100,VALID,-0.0509425,VALID,20.225,VALID,233,VALID,0,
2008-06-05, 02:16:00,VALID,916.153,VALID,0,VALID,100,VALID,-0.101885,VALID,20.2317,VALID,236,VALID,0,
2008-06-05, 02:17:00,VALID,916.155,VALID,0,VALID,100,VALID,-0.0509425,VALID,20.2382,VALID,236,VALID,0,
2008-06-05, 02:18:00,VALID,916.142,VALID,0,VALID,100,VALID,-0.0849042,VALID,20.232,VALID,236,VALID,0,
2008-06-05, 02:19:00,VALID,916.123,VALID,0,VALID,100,VALID,-0.0849042,VALID,20.2255,VALID,236,VALID,0,
2008-06-05, 02:20:00,VALID,916.109,VALID,0,VALID,100,VALID,-0.0339617,VALID,20.2414,VALID,236,VALID,0,
2008-06-05, 02:21:00,VALID,916.088,VALID,0,VALID,100,VALID,-0.0169808,VALID,20.2574,VALID,252,VALID,0,
2008-06-05, 02:22:00,VALID,916.065,VALID,0,VALID,100,VALID,-0.0849042,VALID,20.2612,VALID,347,VALID,0,
2008-06-05, 02:23:00,VALID,916.056,VALID,0,VALID,100,VALID,-0.0509425,VALID,20.2544,VALID,14,VALID,0,
2008-06-05, 02:24:00,VALID,916.049,VALID,0,VALID,100,VALID,-0.0849042,VALID,20.2577,VALID,23,VALID,0,
2008-06-05, 02:25:00,VALID,916.047,VALID,0,VALID,100,VALID,-0.0849042,VALID,20.2674,VALID,31,VALID,0,
2008-06-05, 02:26:00,VALID,916.052,VALID,0,VALID,100,VALID,-0.0509425,VALID,20.2644,VALID,31,VALID,0,
2008-06-05, 02:27:00,VALID,916.065,VALID,0,VALID,100,VALID,-0.0339617,VALID,20.2704,VALID,31,VALID,0,
2008-06-05, 02:28:00,VALID,916.086,VALID,0,VALID,100,VALID,-0.0679233,VALID,20.2836,VALID,31,VALID,0,
2008-06-05, 02:29:00,VALID,916.105,VALID,0,VALID,100,VALID,-0.101885,VALID,20.2841,VALID,31,VALID,0,
2008-06-05, 02:30:00,VALID,916.138,VALID,0,VALID,100,VALID,-0.0679233,VALID,20.2614,VALID,31,VALID,0,
2008-06-05, 02:31:00,VALID,916.144,VALID,0,VALID,100,VALID,-0.0679233,VALID,20.2352,VALID,31,VALID,0,
2008-06-05, 02:32:00,VALID,916.151,VALID,0,VALID,100,VALID,-0.101885,VALID,20.2252,VALID,31,VALID,0,
2008-06-05, 02:33:00,VALID,916.138,VALID,0,VALID,100,VALID,-0.101885,VALID,20.2065,VALID,31,VALID,0,
2008-06-05, 02:34:00,VALID,916.146,VALID,0,VALID,100,VALID,-0.0509425,VALID,20.1795,VALID,31,VALID,0,
2008-06-05, 02:35:00,VALID,916.127,VALID,0,VALID,100,VALID,-0.0509425,VALID,20.1765,VALID,31,VALID,0,
2008-06-05, 02:36:00,VALID,916.12,VALID,0,VALID,100,VALID,-0.0849042,VALID,20.1771,VALID,31,VALID,0,
2008-06-05, 02:37:00,VALID,916.116,VALID,0,VALID,100,VALID,-0.0849042,VALID,20.1806,VALID,31,VALID,0,
2008-06-05, 02:38:00,VALID,916.102,VALID,0,VALID,100,VALID,-0.0679233,VALID,20.1631,VALID,31,VALID,0,
2008-06-05, 02:39:00,VALID,916.094,VALID,0,VALID,100,VALID,0.0169808,VALID,20.1753,VALID,31,VALID,0,
2008-06-05, 02:40:00,VALID,916.086,VALID,0,VALID,100,VALID,0,VALID,20.1882,VALID,31,VALID,0,
2008-06-05, 02:41:00,VALID,916.067,VALID,0,VALID,100,VALID,0.0169808,VALID,20.2045,VALID,31,VALID,0,
2008-06-05, 02:42:00,VALID,916.042,VALID,0,VALID,100,VALID,0.0169808,VALID,20.2307,VALID,31,VALID,0,
2008-06-05, 02:43:00,VALID,916.043,VALID,0,VALID,100,VALID,0.0169808,VALID,20.2439,VALID,31,VALID,0,
2008-06-05, 02:44:00,VALID,916.04,VALID,0,VALID,100,VALID,0.0169808,VALID,20.2367,VALID,31,VALID,0,
2008-06-05, 02:45:00,VALID,916.04,VALID,0,VALID,100,VALID,0.0339617,VALID,20.2402,VALID,31,VALID,0,
2008-06-05, 02:46:00,VALID,916.026,VALID,0,VALID,100,VALID,0.0339617,VALID,20.2269,VALID,31,VALID,0,
2008-06-05, 02:47:00,VALID,916.04,VALID,0,VALID,100,VALID,0,VALID,20.2404,VALID,31,VALID,0,
2008-06-05, 02:48:00,VALID,916.035,VALID,0,VALID,100,VALID,0.0169808,VALID,20.2504,VALID,31,VALID,0,
2008-06-05, 02:49:00,VALID,916.006,VALID,0,VALID,100,VALID,0.0169808,VALID,20.2499,VALID,31,VALID,0,
2008-06-05, 02:50:00,VALID,916.006,VALID,0,VALID,100,VALID,-0.0169808,VALID,20.2604,VALID,31,VALID,0,
2008-06-05, 02:51:00,VALID,915.99,VALID,0,VALID,100,VALID,0,VALID,20.2637,VALID,31,VALID,0,
2008-06-05, 02:52:00,VALID,915.985,VALID,0,VALID,100,VALID,0,VALID,20.2602,VALID,31,VALID,0,
2008-06-05, 02:53:00,VALID,915.969,VALID,0,VALID,100,VALID,0.0169808,VALID,20.2566,VALID,31,VALID,0,
2008-06-05, 02:54:00,VALID,915.979,VALID,0,VALID,100,VALID,0,VALID,20.2437,VALID,31,VALID,0,
2008-06-05, 02:55:00,VALID,915.963,VALID,0,VALID,100,VALID,0,VALID,20.2307,VALID,31,VALID,0,
2008-06-05, 02:56:00,VALID,915.965,VALID,0,VALID,100,VALID,0.0339617,VALID,20.1815,VALID,31,VALID,0,
2008-06-05, 02:57:00,VALID,915.959,VALID,0,VALID,100,VALID,0.0169808,VALID,20.162,VALID,31,VALID,0,
2008-06-05, 02:58:00,VALID,915.95,VALID,0,VALID,100,VALID,0.0169808,VALID,20.1461,VALID,31,VALID,0,
2008-06-05, 02:59:00,VALID,915.944,VALID,0,VALID,100,VALID,0,VALID,20.159,VALID,31,VALID,0,
2008-06-05, 03:00:00,VALID,915.92,VALID,0,VALID,100,VALID,0.0339617,VALID,20.169,VALID,31,VALID,0,
2008-06-05, 03:01:00,VALID,915.904,VALID,0,VALID,100,VALID,0.0169808,VALID,20.1653,VALID,31,VALID,0,
2008-06-05, 03:02:00,VALID,915.886,VALID,0,VALID,100,VALID,0.0169808,VALID,20.166,VALID,31,VALID,0,
2008-06-05, 03:03:00,VALID,915.87,VALID,0,VALID,100,VALID,0.0169808,VALID,20.1458,VALID,31,VALID,0,
2008-06-05, 03:04:00,VALID,915.831,VALID,0,VALID,100,VALID,0.0169808,VALID,20.159,VALID,31,VALID,0,
2008-06-05, 03:05:00,VALID,915.815,VALID,0,VALID,100,VALID,0.0169808,VALID,20.185,VALID,31,VALID,0,
2008-06-05, 03:06:00,VALID,915.789,VALID,0,VALID,100,VALID,0.0169808,VALID,20.1718,VALID,31,VALID,0,
2008-06-05, 03:07:00,VALID,915.758,VALID,0,VALID,100,VALID,0.0169808,VALID,20.1683,VALID,31,VALID,0,
2008-06-05, 03:08:00,VALID,915.728,VALID,0,VALID,100,VALID,-0.0339617,VALID,20.1561,VALID,31,VALID,0,
2008-06-05, 03:09:00,VALID,915.723,VALID,0,VALID,100,VALID,-0.0679233,VALID,20.1506,VALID,31,VALID,0,
2008-06-05, 03:10:00,VALID,915.721,VALID,0,VALID,100,VALID,-0.0509425,VALID,20.1444,VALID,31,VALID,0,
2008-06-05, 03:11:00,VALID,915.719,VALID,0,VALID,100,VALID,-0.0679233,VALID,20.1416,VALID,31,VALID,0,
2008-06-05, 03:12:00,VALID,915.723,VALID,0,VALID,100,VALID,-0.0849042,VALID,20.1157,VALID,31,VALID,0,
2008-06-05, 03:13:00,VALID,915.738,VALID,0,VALID,100,VALID,-0.0849042,VALID,20.0695,VALID,31,VALID,0,
2008-06-05, 03:14:00,VALID,915.741,VALID,0,VALID,100,VALID,-0.0679233,VALID,20.0567,VALID,31,VALID,0,
2008-06-05, 03:15:00,VALID,915.762,VALID,0,VALID,100,VALID,-0.0849042,VALID,20.047,VALID,31,VALID,0,
2008-06-05, 03:16:00,VALID,915.753,VALID,0,VALID,100,VALID,-0.0849042,VALID,20.0378,VALID,31,VALID,0,
2008-06-05, 03:17:00,VALID,915.747,VALID,0,VALID,100,VALID,-0.101885,VALID,20.0313,VALID,31,VALID,0,
2008-06-05, 03:18:00,VALID,915.749,VALID,0,VALID,100,VALID,-0.0849042,VALID,20.0278,VALID,31,VALID,0,
2008-06-05, 03:19:00,VALID,915.728,VALID,0,VALID,100,VALID,-0.0679233,VALID,20.034,VALID,31,VALID,0,
2008-06-05, 03:20:00,VALID,915.733,VALID,0,VALID,100,VALID,-0.101885,VALID,20.0473,VALID,31,VALID,0,
2008-06-05, 03:21:00,VALID,915.725,VALID,0,VALID,100,VALID,-0.101885,VALID,20.0283,VALID,31,VALID,0,
2008-06-05, 03:22:00,VALID,915.72,VALID,0,VALID,100,VALID,-0.101885,VALID,20.0445,VALID,31,VALID,0,
2008-06-05, 03:23:00,VALID,915.717,VALID,0,VALID,100,VALID,-0.0679233,VALID,20.0275,VALID,31,VALID,0,
2008-06-05, 03:24:00,VALID,915.708,VALID,0,VALID,100,VALID,-0.101885,VALID,20.0148,VALID,31,VALID,0,
2008-06-05, 03:25:00,VALID,915.701,VALID,0,VALID,100,VALID,-0.101885,VALID,20.018,VALID,31,VALID,0,
2008-06-05, 03:26:00,VALID,915.701,VALID,0,VALID,100,VALID,-0.101885,VALID,20.038,VALID,31,VALID,0,
2008-06-05, 03:27:00,VALID,915.699,VALID,0,VALID,100,VALID,-0.101885,VALID,20.0278,VALID,51,VALID,0,
2008-06-05, 03:28:00,VALID,915.702,VALID,0,VALID,100,VALID,-0.0509425,VALID,20.0173,VALID,59,VALID,0,
2008-06-05, 03:29:00,VALID,915.704,VALID,0,VALID,100,VALID,-0.0849042,VALID,20.021,VALID,62,VALID,0,
2008-06-05, 03:30:00,VALID,915.713,VALID,0,VALID,100,VALID,-0.101885,VALID,20.0248,VALID,66,VALID,0,
2008-06-05, 03:31:00,VALID,915.722,VALID,0,VALID,100,VALID,-0.101885,VALID,20.021,VALID,66,VALID,0,
2008-06-05, 03:32:00,VALID,915.729,VALID,0,VALID,100,VALID,-0.101885,VALID,20.0413,VALID,66,VALID,0,
2008-06-05, 03:33:00,VALID,915.735,VALID,0,VALID,100,VALID,-0.0679233,VALID,20.0213,VALID,82,VALID,0,
2008-06-05, 03:34:00,VALID,915.764,VALID,0,VALID,100,VALID,-0.0509425,VALID,20.0178,VALID,73,VALID,0,
2008-06-05, 03:35:00,VALID,915.772,VALID,0,VALID,100,VALID,-0.101885,VALID,20.0218,VALID,83,VALID,0,
2008-06-05, 03:36:00,VALID,915.775,VALID,0,VALID,100,VALID,-0.118866,VALID,20.038,VALID,74,VALID,0,
2008-06-05, 03:37:00,VALID,915.789,VALID,0,VALID,100,VALID,-0.101885,VALID,20.0248,VALID,76,VALID,0,
2008-06-05, 03:38:00,VALID,915.779,VALID,0,VALID,100,VALID,-0.0509425,VALID,20.0205,VALID,78,VALID,0,
2008-06-05, 03:39:00,VALID,915.78,VALID,0,VALID,100,VALID,0.0169808,VALID,20.0268,VALID,88,VALID,0,
2008-06-05, 03:40:00,VALID,915.764,VALID,0,VALID,100,VALID,0.0339617,VALID,20.0135,VALID,90,VALID,0,
2008-06-05, 03:41:00,VALID,915.751,VALID,0,VALID,100,VALID,0.0169808,VALID,20.023,VALID,90,VALID,0,
2008-06-05, 03:42:00,VALID,915.736,VALID,0,VALID,100,VALID,0,VALID,20.0395,VALID,111,VALID,0,
2008-06-05, 03:43:00,VALID,915.716,VALID,0,VALID,100,VALID,-0.0169808,VALID,20.0008,VALID,110,VALID,0,
2008-06-05, 03:44:00,VALID,915.714,VALID,0,VALID,100,VALID,0,VALID,19.9946,VALID,93,VALID,0,
2008-06-05, 03:45:00,VALID,915.687,VALID,0,VALID,100,VALID,0,VALID,19.9843,VALID,77,VALID,0,
2008-06-05, 03:46:00,VALID,915.665,VALID,0,VALID,100,VALID,0,VALID,20.0006,VALID,46,VALID,0,
2008-06-05, 03:47:00,VALID,915.65,VALID,0,VALID,100,VALID,-0.0169808,VALID,20.0233,VALID,35,VALID,0,
2008-06-05, 03:48:00,VALID,915.628,VALID,0,VALID,100,VALID,0,VALID,20.0335,VALID,35,VALID,0,
2008-06-05, 03:49:00,VALID,915.614,VALID,0,VALID,100,VALID,0,VALID,20.017,VALID,35,VALID,0,
2008-06-05, 03:50:00,VALID,915.606,VALID,0,VALID,100,VALID,-0.0169808,VALID,20.0368,VALID,35,VALID,0,
2008-06-05, 03:51:00,VALID,915.587,VALID,0,VALID,100,VALID,-0.0169808,VALID,20.0368,VALID,35,VALID,0,
2008-06-05, 03:52:00,VALID,915.577,VALID,0,VALID,100,VALID,-0.0169808,VALID,20.0432,VALID,35,VALID,0,
2008-06-05, 03:53:00,VALID,915.575,VALID,0,VALID,100,VALID,0,VALID,20.036,VALID,35,VALID,0,
2008-06-05, 03:54:00,VALID,915.562,VALID,0,VALID,100,VALID,0,VALID,20.0165,VALID,35,VALID,0,